sat.trackr.live / text

‹ back to catalog

STARLINK-5538

NORAD 56357 · 2023-058AS

PAYLOAD ACTIVE UNKNOWN

§ Identity

Operator
Country
US
Launch date
2023-04-27
Launch site
AFWTR
Launch vehicle
Mass (kg)
RCS (m²)

Purposes: comms

External: N2YO · Heavens-Above · Gunter

§ Orbital elements

Epoch: 2026-09-20T17:01:27.941952Z

Period
93.91 min
Inclination
97.2812°
Eccentricity
0.0002598
Mean motion
15.33427392 rev/d
Perigee alt
463.8 km
Apogee alt
467.4 km
Semi-major
6,843.7 km
B*
-1.0459e-4
RAAN
260.4139°
Arg perigee
96.7153°
Mean anomaly
263.4386°
Rev number
18,766

§ Raw data

STARLINK-55381 56357U 23058AS  26263.70935118 -.00003449  00000+0 -10459-3 0  99902 56357  97.2812 260.4139 0002598  96.7153 263.4386 15.33427392187666

JSON: /api/v1/satellites/56357 · /tle

For live sub-satellite position, see the globe view (requires WebGL).

§ Visibility from observer

Set your observer location to see the next 7 days of passes ≥ 10°. The values pass through the URL so the page stays shareable.

No JS? Fill the form by hand. The geolocation button needs JavaScript.